Time,TemperatureF,DewpointF,PressureIn,WindDirection,WindDirectionDegrees,WindSpeedMPH,WindSpeedGustMPH,Humidity,HourlyPrecipIn,Conditions,Clouds,dailyrainin,SoftwareType,DateUTC
2013-01-20 00:23:00,38.0,29.0,-100.00,WNW,300,2.0,-999.0,69,0.00,,,-99.99,,2013-01-20 05:23:00,
2013-01-20 00:33:00,38.0,29.0,-100.00,WNW,300,2.0,-999.0,69,0.00,,,-99.99,,2013-01-20 05:33:00,
2013-01-20 00:43:00,38.0,29.0,-100.00,WNW,300,2.0,-999.0,69,0.00,,,-99.99,,2013-01-20 05:43:00,
2013-01-20 01:22:00,38.0,30.0,-100.00,WNW,293,3.0,-999.0,72,0.00,,,-99.99,,2013-01-20 06:22:00,
2013-01-20 01:33:00,38.0,30.0,-100.00,WNW,293,3.0,-999.0,72,0.00,,,-99.99,,2013-01-20 06:33:00,
2013-01-20 01:43:00,38.0,30.0,-100.00,WNW,293,3.0,-999.0,72,0.00,,,-99.99,,2013-01-20 06:43:00,
2013-01-20 02:22:00,39.0,31.0,-100.00,NNW,332,4.0,-999.0,72,0.00,,,-99.99,,2013-01-20 07:22:00,
2013-01-20 02:32:00,39.0,31.0,-100.00,NNW,332,4.0,-999.0,72,0.00,,,-99.99,,2013-01-20 07:32:00,
2013-01-20 02:42:00,39.0,31.0,-100.00,NNW,332,4.0,-999.0,72,0.00,,,-99.99,,2013-01-20 07:42:00,
2013-01-20 03:22:00,39.0,31.0,-100.00,WNW,298,2.0,-999.0,74,0.00,,,-99.99,,2013-01-20 08:22:00,
2013-01-20 03:32:00,39.0,31.0,-100.00,WNW,298,2.0,-999.0,74,0.00,,,-99.99,,2013-01-20 08:32:00,
2013-01-20 03:42:00,39.0,31.0,-100.00,WNW,298,2.0,-999.0,74,0.00,,,-99.99,,2013-01-20 08:42:00,
2013-01-20 04:22:00,40.0,31.0,-100.00,North,360,2.0,-999.0,71,0.00,,,-99.99,,2013-01-20 09:22:00,
2013-01-20 04:33:00,40.0,31.0,-100.00,North,360,2.0,-999.0,71,0.00,,,-99.99,,2013-01-20 09:33:00,
2013-01-20 04:42:00,40.0,31.0,-100.00,North,360,2.0,-999.0,71,0.00,,,-99.99,,2013-01-20 09:42:00,
2013-01-20 05:23:00,39.0,31.0,-100.00,NW,318,4.0,-999.0,71,0.00,,,-99.99,,2013-01-20 10:23:00,
2013-01-20 05:32:00,39.0,31.0,-100.00,NW,318,4.0,-999.0,71,0.00,,,-99.99,,2013-01-20 10:32:00,
2013-01-20 05:42:00,39.0,31.0,-100.00,NW,318,4.0,-999.0,71,0.00,,,-99.99,,2013-01-20 10:42:00,
2013-01-20 06:12:00,39.0,30.0,-100.00,NW,322,6.0,-999.0,71,0.00,,,-99.99,,2013-01-20 11:12:00,
2013-01-20 06:22:00,39.0,30.0,-100.00,NW,322,6.0,-999.0,71,0.00,,,-99.99,,2013-01-20 11:22:00,
2013-01-20 06:33:00,39.0,30.0,-100.00,NW,322,6.0,-999.0,71,0.00,,,-99.99,,2013-01-20 11:33:00,
2013-01-20 06:43:00,39.0,30.0,-100.00,NW,322,6.0,-999.0,71,0.00,,,-99.99,,2013-01-20 11:43:00,
2013-01-20 07:23:00,38.0,31.0,-100.00,NW,325,4.0,-999.0,74,0.00,,,-99.99,,2013-01-20 12:23:00,
2013-01-20 07:33:00,38.0,31.0,-100.00,NW,325,4.0,-999.0,74,0.00,,,-99.99,,2013-01-20 12:33:00,
2013-01-20 07:43:00,38.0,31.0,-100.00,NW,325,4.0,-999.0,74,0.00,,,-99.99,,2013-01-20 12:43:00,
2013-01-20 08:23:00,39.0,31.0,-100.00,NW,317,6.0,-999.0,73,0.00,,,-99.99,,2013-01-20 13:23:00,
2013-01-20 08:33:00,39.0,31.0,-100.00,NW,317,6.0,-999.0,73,0.00,,,-99.99,,2013-01-20 13:33:00,
2013-01-20 08:43:00,39.0,31.0,-100.00,NW,317,6.0,-999.0,73,0.00,,,-99.99,,2013-01-20 13:43:00,
2013-01-20 09:23:00,43.0,31.0,-100.00,NNW,336,10.0,-999.0,62,0.00,,,-99.99,,2013-01-20 14:23:00,
2013-01-20 09:33:00,43.0,31.0,-100.00,NNW,336,10.0,-999.0,62,0.00,,,-99.99,,2013-01-20 14:33:00,
2013-01-20 09:43:00,43.0,31.0,-100.00,NNW,336,10.0,-999.0,62,0.00,,,-99.99,,2013-01-20 14:43:00,
2013-01-20 10:23:00,46.0,30.0,-100.00,North,351,11.0,-999.0,54,0.00,,,-99.99,,2013-01-20 15:23:00,
2013-01-20 10:33:00,46.0,30.0,-100.00,North,351,11.0,-999.0,54,0.00,,,-99.99,,2013-01-20 15:33:00,
2013-01-20 10:43:00,46.0,30.0,-100.00,North,351,11.0,-999.0,54,0.00,,,-99.99,,2013-01-20 15:43:00,
2013-01-20 11:23:00,48.0,29.0,-100.00,NNW,348,13.0,-999.0,48,0.00,,,-99.99,,2013-01-20 16:23:00,
2013-01-20 11:33:00,48.0,29.0,-100.00,NNW,348,13.0,-999.0,48,0.00,,,-99.99,,2013-01-20 16:33:00,
2013-01-20 11:43:00,48.0,29.0,-100.00,NNW,348,13.0,-999.0,48,0.00,,,-99.99,,2013-01-20 16:43:00,
2013-01-20 12:23:00,51.0,29.0,-100.00,NNW,347,11.0,-999.0,42,0.00,,,-99.99,,2013-01-20 17:23:00,
2013-01-20 12:33:00,51.0,29.0,-100.00,NNW,347,11.0,-999.0,42,0.00,,,-99.99,,2013-01-20 17:33:00,
2013-01-20 12:43:00,51.0,29.0,-100.00,NNW,347,11.0,-999.0,42,0.00,,,-99.99,,2013-01-20 17:43:00,
2013-01-20 13:13:00,49.0,28.0,-100.00,North,5,17.0,-999.0,45,0.00,,,-99.99,,2013-01-20 18:13:00,
2013-01-20 13:24:00,49.0,28.0,-100.00,North,5,17.0,-999.0,45,0.00,,,-99.99,,2013-01-20 18:24:00,
2013-01-20 13:33:00,49.0,28.0,-100.00,North,5,17.0,-999.0,45,0.00,,,-99.99,,2013-01-20 18:33:00,
2013-01-20 13:43:00,49.0,28.0,-100.00,North,5,17.0,-999.0,45,0.00,,,-99.99,,2013-01-20 18:43:00,
2013-01-20 14:23:00,44.0,30.0,-100.00,NNW,345,23.0,-999.0,59,0.00,,,-99.99,,2013-01-20 19:23:00,
2013-01-20 14:33:00,44.0,30.0,-100.00,NNW,345,23.0,-999.0,59,0.00,,,-99.99,,2013-01-20 19:33:00,
2013-01-20 14:43:00,44.0,30.0,-100.00,NNW,345,23.0,-999.0,59,0.00,,,-99.99,,2013-01-20 19:43:00,
2013-01-20 15:23:00,44.0,24.0,-100.00,WNW,286,12.0,-999.0,45,0.00,,,-99.99,,2013-01-20 20:23:00,
2013-01-20 15:33:00,44.0,24.0,-100.00,WNW,286,12.0,-999.0,45,0.00,,,-99.99,,2013-01-20 20:33:00,
2013-01-20 15:42:00,44.0,24.0,-100.00,WNW,286,12.0,-999.0,45,0.00,,,-99.99,,2013-01-20 20:42:00,
2013-01-20 16:23:00,44.0,19.0,-100.00,WNW,286,16.0,-999.0,37,0.00,,,-99.99,,2013-01-20 21:23:00,
2013-01-20 16:33:00,44.0,19.0,-100.00,WNW,286,16.0,-999.0,37,0.00,,,-99.99,,2013-01-20 21:33:00,
2013-01-20 16:43:00,44.0,19.0,-100.00,WNW,286,16.0,-999.0,37,0.00,,,-99.99,,2013-01-20 21:43:00,
2013-01-20 17:23:00,41.0,14.0,-100.00,WSW,256,18.0,-999.0,34,0.00,,,-99.99,,2013-01-20 22:23:00,
2013-01-20 17:33:00,41.0,14.0,-100.00,WSW,256,18.0,-999.0,34,0.00,,,-99.99,,2013-01-20 22:33:00,
2013-01-20 17:43:00,41.0,14.0,-100.00,WSW,256,18.0,-999.0,34,0.00,,,-99.99,,2013-01-20 22:43:00,
2013-01-20 18:23:00,37.0,17.0,-100.00,SW,228,25.0,-999.0,44,0.00,,,-99.99,,2013-01-20 23:23:00,
2013-01-20 18:33:00,37.0,17.0,-100.00,SW,228,25.0,-999.0,44,0.00,,,-99.99,,2013-01-20 23:33:00,
2013-01-20 18:43:00,37.0,17.0,-100.00,SW,228,25.0,-999.0,44,0.00,,,-99.99,,2013-01-20 23:43:00,
2013-01-20 19:23:00,35.0,17.0,-100.00,SW,229,20.0,-999.0,48,0.00,,,-99.99,,2013-01-21 00:23:00,
2013-01-20 19:33:00,35.0,17.0,-100.00,SW,229,20.0,-999.0,48,0.00,,,-99.99,,2013-01-21 00:33:00,
2013-01-20 19:43:00,35.0,17.0,-100.00,SW,229,20.0,-999.0,48,0.00,,,-99.99,,2013-01-21 00:43:00,
2013-01-20 20:23:00,33.0,16.0,-100.00,SW,233,17.0,-999.0,50,0.00,,,-99.99,,2013-01-21 01:23:00,
2013-01-20 20:33:00,33.0,16.0,-100.00,SW,233,17.0,-999.0,50,0.00,,,-99.99,,2013-01-21 01:33:00,
2013-01-20 20:43:00,33.0,16.0,-100.00,SW,233,17.0,-999.0,50,0.00,,,-99.99,,2013-01-21 01:43:00,
2013-01-20 21:23:00,32.0,14.0,-100.00,SW,229,14.0,-999.0,49,0.00,,,-99.99,,2013-01-21 02:23:00,
2013-01-20 21:33:00,32.0,14.0,-100.00,SW,229,14.0,-999.0,49,0.00,,,-99.99,,2013-01-21 02:33:00,
2013-01-20 21:43:00,32.0,14.0,-100.00,SW,229,14.0,-999.0,49,0.00,,,-99.99,,2013-01-21 02:43:00,
2013-01-20 22:23:00,31.0,14.0,-100.00,SW,229,13.0,-999.0,50,0.00,,,-99.99,,2013-01-21 03:23:00,
2013-01-20 22:33:00,31.0,14.0,-100.00,SW,229,13.0,-999.0,50,0.00,,,-99.99,,2013-01-21 03:33:00,
2013-01-20 22:43:00,31.0,14.0,-100.00,SW,229,13.0,-999.0,50,0.00,,,-99.99,,2013-01-21 03:43:00,
2013-01-20 23:23:00,29.0,13.0,-100.00,WSW,241,16.0,-999.0,50,0.00,,,-99.99,,2013-01-21 04:23:00,
2013-01-20 23:33:00,29.0,13.0,-100.00,WSW,241,16.0,-999.0,50,0.00,,,-99.99,,2013-01-21 04:33:00,
2013-01-20 23:43:00,29.0,13.0,-100.00,WSW,241,16.0,-999.0,50,0.00,,,-99.99,,2013-01-21 04:43:00,